Weather History for KCNM - March, 2014

Change the Weather History Date:

Thursday, March 20, 2014

  Actual Average Record
Temperature  
Mean Temperature 58 °F -  
Max Temperature 81 °F 70 °F 90 °F (1978)
Min Temperature 35 °F 38 °F 14 °F (1965)
Degree Days  
Heating Degree Days 7    
Growing Degree Days 8 (Base 50)    
Moisture  
Dew Point 16 °F    
Average Humidity 23    
Maximum Humidity 50    
Minimum Humidity 6    
Precipitation  
Precipitation 0.00 in - - ()
Sea Level Pressure  
Sea Level Pressure 29.97 in    
Wind  
Wind Speed 8 mph (South)    
Max Wind Speed 15 mph    
Max Gust Speed 25 mph    
Visibility 9 miles    
Events      
Averages and records for this station are not official NWS values.
T = Trace of Precipitation, MM = Missing Value Source: NWS Daily Summary

Daily Weather History Graph

Daily Weather History Graph

Search for Another Location

Airport or City:

Trip Planner

Search our weather history database for the weather conditions in past years. The results will help you decide how hot, cold, wet, or windy it might be!

Date:

Astronomy

Mar. 20, 2014 Rise Set
Actual Time 7:00 AM MDT 7:08 PM MDT
Civil Twilight 6:36 AM MDT 7:33 PM MDT
Nautical Twilight 6:07 AM MDT 8:01 PM MDT
Astronomical Twilight 5:38 AM MDT 8:30 PM MDT
Moon 11:16 PM MDT (3/20) 9:22 AM MDT (3/20)
Length of Visible Light 12h 56m
Length of Day
12h 07m
Waning Gibbous, 83% of the Moon is Illuminated
Mar 20
Waning Gibbous
Mar 23
Last Quarter
Mar 30
New
Apr 7
First Quarter
Apr 15
Full

Hourly Weather History & Observations

Time (MDT) Temp. Windchill Dew Point Humidity Pressure Visibility Wind Dir Wind Speed Gust Speed Precip Events Conditions
12:53 AM 43.0 °F 38.8 °F 17.1 °F 35% 30.12 in 10.0 mi South 6.9 mph - N/A   Clear
1:53 AM 39.9 °F 34.5 °F 17.1 °F 40% 30.12 in 10.0 mi South 8.1 mph - N/A   Clear
2:53 AM 43.0 °F 37.2 °F 19.0 °F 38% 30.10 in 10.0 mi South 10.4 mph - N/A   Clear
3:53 AM 46.9 °F - 18.0 °F 32% 30.08 in 9.0 mi South 9.2 mph - N/A   Clear
4:53 AM 43.0 °F 38.2 °F 18.0 °F 37% 30.09 in 9.0 mi South 8.1 mph - N/A   Clear
5:53 AM 35.1 °F 30.1 °F 18.0 °F 50% 30.11 in 10.0 mi North 5.8 mph - N/A   Clear
6:53 AM 35.1 °F 30.1 °F 18.0 °F 50% 30.13 in 8.0 mi NNE 5.8 mph - N/A   Clear
7:53 AM 37.9 °F - 19.0 °F 47% 30.14 in 7.0 mi Calm Calm - N/A   Clear
8:53 AM 43.0 °F 41.3 °F 19.9 °F 40% 30.13 in 7.0 mi Variable 3.5 mph - N/A   Clear
9:53 AM 53.1 °F - 19.9 °F 27% 30.11 in 9.0 mi Variable 4.6 mph - N/A   Clear
10:53 AM 62.1 °F - 18.0 °F 18% 30.07 in 9.0 mi SE 10.4 mph - N/A   Clear
11:53 AM 66.0 °F - 18.0 °F 16% 30.03 in 8.0 mi SSE 8.1 mph - N/A   Clear
12:53 PM 71.1 °F - 18.0 °F 13% 29.99 in 8.0 mi South 10.4 mph 17.3 mph N/A   Clear
1:53 PM 75.9 °F - 17.1 °F 11% 29.94 in 8.0 mi South 11.5 mph - N/A   Clear
2:53 PM 79.0 °F - 16.0 °F 9% 29.88 in 9.0 mi SSE 13.8 mph 21.9 mph N/A   Clear
3:53 PM 81.0 °F - 8.1 °F 6% 29.83 in 10.0 mi South 12.7 mph 25.3 mph N/A   Clear
4:53 PM 80.1 °F - 7.0 °F 6% 29.81 in 10.0 mi SSW 15.0 mph 25.3 mph N/A   Clear
5:53 PM 79.0 °F - 10.0 °F 7% 29.82 in 10.0 mi SSW 13.8 mph - N/A   Clear
6:53 PM 73.9 °F - 12.0 °F 9% 29.82 in 10.0 mi South 6.9 mph - N/A   Clear
7:53 PM 66.9 °F - 12.9 °F 12% 29.83 in 10.0 mi South 9.2 mph - N/A   Clear
8:53 PM 66.9 °F - 12.0 °F 12% 29.83 in 10.0 mi South 12.7 mph - N/A   Clear
9:53 PM 69.1 °F - 12.0 °F 11% 29.80 in 10.0 mi SSE 12.7 mph - N/A   Clear
10:53 PM 64.0 °F - 15.1 °F 15% 29.79 in 10.0 mi SE 8.1 mph - N/A   Clear
11:53 PM 60.1 °F - 15.1 °F 17% 29.79 in 10.0 mi South 9.2 mph - N/A   Clear